Time,TemperatureF,DewpointF,PressureIn,WindDirection,WindDirectionDegrees,WindSpeedMPH,WindSpeedGustMPH,Humidity,HourlyPrecipIn,Conditions,Clouds,dailyrainin,SoftwareType,DateUTC
2013-09-17 09:15:00,56.3,51.5,27.86,South,178,0.0,0.0,84,0.00,,,0.00,VWS V14.01,2013-09-17 16:15:00,
2013-09-17 09:28:00,58.3,52.5,27.85,SSW,192,0.0,0.0,81,0.00,,,0.00,VWS V14.01,2013-09-17 16:28:00,
2013-09-17 09:29:00,58.6,52.8,27.85,SSW,193,0.0,0.0,81,0.00,,,0.00,VWS V14.01,2013-09-17 16:29:00,
2013-09-17 09:30:00,58.8,53.0,27.85,SSW,192,0.0,0.0,81,0.00,,,0.00,VWS V14.01,2013-09-17 16:30:00,
2013-09-17 09:35:00,59.6,53.1,27.85,South,189,0.0,0.0,79,0.00,,,0.00,VWS V14.01,2013-09-17 16:35:00,
2013-09-17 09:40:00,60.2,53.0,27.84,South,190,0.0,0.0,77,0.00,,,0.00,VWS V14.01,2013-09-17 16:40:00,
2013-09-17 09:45:00,61.0,53.4,27.84,SSW,193,0.0,0.0,76,0.00,,,0.00,VWS V14.01,2013-09-17 16:45:00,
2013-09-17 09:50:00,61.5,53.2,27.84,SSW,196,0.0,0.0,74,0.00,,,0.00,VWS V14.01,2013-09-17 16:50:00,
2013-09-17 09:55:00,62.2,53.8,27.83,SSW,197,0.0,0.0,74,0.00,,,0.00,VWS V14.01,2013-09-17 16:55:00,
2013-09-17 10:00:00,62.8,54.0,27.83,SSW,197,0.0,0.0,73,0.00,,,0.00,VWS V14.01,2013-09-17 17:00:00,
2013-09-17 10:05:00,63.1,53.2,27.83,SSW,197,0.0,0.0,70,0.00,,,0.00,VWS V14.01,2013-09-17 17:05:00,
2013-09-17 10:10:00,63.6,53.7,27.83,SSW,195,0.0,0.0,70,0.00,,,0.00,VWS V14.01,2013-09-17 17:10:00,
2013-09-17 10:16:00,63.9,53.5,27.83,SSW,196,0.0,0.0,69,0.00,,,0.00,VWS V14.01,2013-09-17 17:16:00,
2013-09-17 10:21:00,64.1,53.3,27.82,South,189,0.0,0.0,68,0.00,,,0.00,VWS V14.01,2013-09-17 17:21:00,
2013-09-17 10:26:00,64.3,53.5,27.82,South,186,0.0,0.0,68,0.00,,,0.00,VWS V14.01,2013-09-17 17:26:00,
2013-09-17 10:30:00,64.2,53.0,27.82,South,189,0.0,0.0,67,0.00,,,0.00,VWS V14.01,2013-09-17 17:30:00,
2013-09-17 10:31:00,64.3,53.5,27.82,South,191,0.0,0.0,68,0.00,,,0.00,VWS V14.01,2013-09-17 17:31:00,
2013-09-17 10:36:00,64.5,54.1,27.82,South,190,0.0,0.0,69,0.00,,,0.00,VWS V14.01,2013-09-17 17:36:00,
2013-09-17 10:41:00,64.7,53.9,27.81,South,185,0.0,0.0,68,0.00,,,0.00,VWS V14.01,2013-09-17 17:41:00,
2013-09-17 10:46:00,64.9,54.1,27.81,South,185,0.0,0.0,68,0.00,,,0.00,VWS V14.01,2013-09-17 17:46:00,
2013-09-17 10:51:00,65.0,54.2,27.81,South,185,0.0,0.0,68,0.00,,,0.00,VWS V14.01,2013-09-17 17:51:00,
2013-09-17 10:56:00,65.0,53.4,27.81,South,181,0.0,0.0,66,0.00,,,0.00,VWS V14.01,2013-09-17 17:56:00,
2013-09-17 11:00:00,64.9,53.3,27.81,South,180,0.0,0.0,66,0.00,,,0.00,VWS V14.01,2013-09-17 18:00:00,
2013-09-17 11:01:00,64.9,54.1,27.81,South,179,0.0,0.0,68,0.00,,,0.00,VWS V14.01,2013-09-17 18:01:00,
2013-09-17 11:06:00,65.2,54.4,27.81,SSW,205,0.0,1.0,68,0.00,,,0.00,VWS V14.01,2013-09-17 18:06:00,
2013-09-17 11:11:00,65.2,53.6,27.81,SSW,205,0.0,1.0,66,0.00,,,0.00,VWS V14.01,2013-09-17 18:11:00,
2013-09-17 11:16:00,65.2,54.0,27.81,SSW,206,0.0,1.0,67,0.00,,,0.00,VWS V14.01,2013-09-17 18:16:00,
2013-09-17 11:21:00,65.4,54.6,27.80,SSW,204,0.0,1.0,68,0.00,,,0.00,VWS V14.01,2013-09-17 18:21:00,
2013-09-17 11:26:00,65.7,54.5,27.80,SSW,203,0.0,1.0,67,0.00,,,0.00,VWS V14.01,2013-09-17 18:26:00,
2013-09-17 11:30:00,66.0,55.2,27.80,SSW,207,0.0,1.0,68,0.00,,,0.00,VWS V14.01,2013-09-17 18:30:00,
2013-09-17 11:32:00,66.3,55.4,27.80,SSW,209,0.0,0.0,68,0.00,,,0.00,VWS V14.01,2013-09-17 18:32:00,
2013-09-17 11:37:00,66.6,54.5,27.80,SSW,206,0.0,0.0,65,0.00,,,0.00,VWS V14.01,2013-09-17 18:37:00,
2013-09-17 11:42:00,66.6,53.6,27.79,SSW,205,0.0,0.0,63,0.00,,,0.00,VWS V14.01,2013-09-17 18:42:00,
2013-09-17 11:47:00,66.8,53.8,27.79,SSW,204,0.0,0.0,63,0.00,,,0.00,VWS V14.01,2013-09-17 18:47:00,
2013-09-17 11:52:00,67.1,55.4,27.79,SSW,204,0.0,0.0,66,0.00,,,0.00,VWS V14.01,2013-09-17 18:52:00,
2013-09-17 11:57:00,66.8,57.5,27.79,SSW,203,0.0,0.0,72,0.00,,,0.00,VWS V14.01,2013-09-17 18:57:00,
2013-09-17 12:00:00,66.3,57.0,27.79,SSW,203,0.0,0.0,72,0.00,,,0.00,VWS V14.01,2013-09-17 19:00:00,
2013-09-17 12:02:00,65.4,55.0,27.79,SSW,203,0.0,0.0,69,0.00,,,0.00,VWS V14.01,2013-09-17 19:02:00,
2013-09-17 12:07:00,65.1,56.2,27.78,SSW,203,0.0,0.0,73,0.00,,,0.00,VWS V14.01,2013-09-17 19:07:00,
2013-09-17 12:12:00,64.9,55.7,27.78,SSW,201,0.0,0.0,72,0.00,,,0.00,VWS V14.01,2013-09-17 19:12:00,
2013-09-17 12:17:00,65.0,55.0,27.78,SSW,207,0.0,0.0,70,0.00,,,0.00,VWS V14.01,2013-09-17 19:17:00,
2013-09-17 12:22:00,65.3,54.5,27.78,SSW,208,0.0,0.0,68,0.00,,,0.00,VWS V14.01,2013-09-17 19:22:00,
2013-09-17 12:27:00,65.9,54.2,27.78,SSW,201,0.0,0.0,66,0.00,,,0.00,VWS V14.01,2013-09-17 19:27:00,
2013-09-17 12:30:00,66.1,54.8,27.78,SSW,198,0.0,0.0,67,0.00,,,0.00,VWS V14.01,2013-09-17 19:30:00,
2013-09-17 12:32:00,66.4,55.1,27.78,SSW,198,0.0,0.0,67,0.00,,,0.00,VWS V14.01,2013-09-17 19:32:00,
2013-09-17 12:37:00,67.2,55.5,27.77,SW,233,0.0,0.0,66,0.00,,,0.00,VWS V14.01,2013-09-17 19:37:00,
2013-09-17 12:42:00,68.2,55.6,27.77,NNW,341,0.0,0.0,64,0.00,,,0.00,VWS V14.01,2013-09-17 19:42:00,
2013-09-17 12:47:00,69.1,54.7,27.77,SSW,210,0.0,0.0,60,0.00,,,0.00,VWS V14.01,2013-09-17 19:47:00,
2013-09-17 12:52:00,69.7,55.2,27.77,SW,231,0.0,0.0,60,0.00,,,0.00,VWS V14.01,2013-09-17 19:52:00,
2013-09-17 12:58:00,70.1,54.7,27.76,NW,305,0.0,0.0,58,0.00,,,0.00,VWS V14.01,2013-09-17 19:58:00,
2013-09-17 13:00:00,70.2,54.8,27.77,NW,306,0.0,0.0,58,0.00,,,0.00,VWS V14.01,2013-09-17 20:00:00,
2013-09-17 13:03:00,70.6,54.6,27.76,SW,215,0.0,1.0,57,0.00,,,0.00,VWS V14.01,2013-09-17 20:03:00,
2013-09-17 13:08:00,71.2,53.7,27.76,NNW,342,0.0,1.0,54,0.00,,,0.00,VWS V14.01,2013-09-17 20:08:00,
2013-09-17 13:13:00,71.2,54.2,27.76,NW,326,0.0,1.0,55,0.00,,,0.00,VWS V14.01,2013-09-17 20:13:00,
2013-09-17 13:18:00,71.0,53.0,27.76,NW,326,0.0,1.0,53,0.00,,,0.00,VWS V14.01,2013-09-17 20:18:00,
2013-09-17 13:23:00,70.8,53.8,27.76,NW,326,0.0,1.0,55,0.00,,,0.00,VWS V14.01,2013-09-17 20:23:00,
2013-09-17 13:28:00,70.8,53.3,27.76,NW,326,0.0,1.0,54,0.00,,,0.00,VWS V14.01,2013-09-17 20:28:00,
2013-09-17 13:30:00,70.8,52.3,27.75,NW,313,0.0,1.0,52,0.00,,,0.00,VWS V14.01,2013-09-17 20:30:00,
2013-09-17 13:33:00,71.2,53.2,27.76,South,190,0.0,0.0,53,0.00,,,0.00,VWS V14.01,2013-09-17 20:33:00,
2013-09-17 13:38:00,71.1,51.0,27.75,WNW,283,0.0,0.0,49,0.00,,,0.00,VWS V14.01,2013-09-17 20:38:00,
2013-09-17 13:43:00,71.0,52.0,27.75,SSW,211,0.0,0.0,51,0.00,,,0.00,VWS V14.01,2013-09-17 20:43:00,
2013-09-17 13:48:00,71.0,52.0,27.75,SW,224,0.0,0.0,51,0.00,,,0.00,VWS V14.01,2013-09-17 20:48:00,
2013-09-17 13:53:00,71.0,51.5,27.75,SW,232,0.0,0.0,50,0.00,,,0.00,VWS V14.01,2013-09-17 20:53:00,
2013-09-17 13:58:00,71.0,50.9,27.74,SW,232,0.0,0.0,49,0.00,,,0.00,VWS V14.01,2013-09-17 20:58:00,
2013-09-17 14:00:00,71.0,50.9,27.74,SW,232,0.0,0.0,49,0.00,,,0.00,VWS V14.01,2013-09-17 21:00:00,
2013-09-17 14:03:00,71.0,51.5,27.75,SSW,204,0.0,0.0,50,0.00,,,0.00,VWS V14.01,2013-09-17 21:03:00,
2013-09-17 14:08:00,71.0,51.5,27.74,SSW,200,0.0,0.0,50,0.00,,,0.00,VWS V14.01,2013-09-17 21:08:00,
2013-09-17 14:13:00,71.0,51.5,27.74,SSW,199,0.0,0.0,50,0.00,,,0.00,VWS V14.01,2013-09-17 21:13:00,
2013-09-17 14:18:00,71.3,52.3,27.74,South,177,0.0,0.0,51,0.00,,,0.00,VWS V14.01,2013-09-17 21:18:00,
2013-09-17 14:23:00,71.5,50.8,27.74,SW,228,0.0,0.0,48,0.00,,,0.00,VWS V14.01,2013-09-17 21:23:00,
2013-09-17 14:28:00,71.3,50.6,27.74,SW,232,0.0,0.0,48,0.00,,,0.00,VWS V14.01,2013-09-17 21:28:00,
2013-09-17 14:30:00,71.3,50.6,27.74,SW,232,0.0,0.0,48,0.00,,,0.00,VWS V14.01,2013-09-17 21:30:00,
2013-09-17 14:34:00,71.2,50.0,27.74,SW,232,0.0,0.0,47,0.00,,,0.00,VWS V14.01,2013-09-17 21:34:00,
2013-09-17 14:39:00,71.1,50.4,27.74,SW,233,0.0,0.0,48,0.00,,,0.00,VWS V14.01,2013-09-17 21:39:00,
2013-09-17 14:44:00,71.0,51.5,27.73,West,277,0.0,0.0,50,0.00,,,0.00,VWS V14.01,2013-09-17 21:44:00,
2013-09-17 14:49:00,71.2,50.5,27.74,West,279,0.0,0.0,48,0.00,,,0.00,VWS V14.01,2013-09-17 21:49:00,
2013-09-17 14:54:00,71.2,50.5,27.73,West,279,0.0,0.0,48,0.00,,,0.00,VWS V14.01,2013-09-17 21:54:00,
2013-09-17 14:59:00,71.0,50.3,27.73,NW,310,0.0,3.0,48,0.00,,,0.00,VWS V14.01,2013-09-17 21:59:00,
2013-09-17 15:00:00,71.0,50.3,27.73,NW,310,0.0,3.0,48,0.00,,,0.00,VWS V14.01,2013-09-17 22:00:00,
2013-09-17 15:04:00,70.8,50.2,27.73,WSW,252,0.0,0.0,48,0.00,,,0.00,VWS V14.01,2013-09-17 22:04:00,
2013-09-17 15:09:00,70.5,51.0,27.73,North,352,4.0,4.0,50,0.00,,,0.00,VWS V14.01,2013-09-17 22:09:00,
2013-09-17 15:14:00,69.8,51.4,27.73,SSW,197,0.0,4.0,52,0.00,,,0.00,VWS V14.01,2013-09-17 22:14:00,
2013-09-17 15:19:00,69.3,51.5,27.73,NNW,327,0.0,7.0,53,0.00,,,0.00,VWS V14.01,2013-09-17 22:19:00,
2013-09-17 15:24:00,68.8,51.5,27.73,North,350,1.0,7.0,54,0.00,,,0.00,VWS V14.01,2013-09-17 22:24:00,
2013-09-17 15:29:00,68.7,51.4,27.73,SSW,196,1.0,1.0,54,0.00,,,0.00,VWS V14.01,2013-09-17 22:29:00,
2013-09-17 15:30:00,68.6,51.3,27.73,South,190,0.0,7.0,54,0.00,,,0.00,VWS V14.01,2013-09-17 22:30:00,
2013-09-17 15:34:00,68.3,51.0,27.74,NNE,20,0.0,5.0,54,0.00,,,0.00,VWS V14.01,2013-09-17 22:34:00,
2013-09-17 15:39:00,68.0,51.7,27.74,WNW,302,0.0,5.0,56,0.00,,,0.00,VWS V14.01,2013-09-17 22:39:00,
2013-09-17 15:44:00,68.0,51.7,27.74,East,85,4.0,5.0,56,0.00,,,0.00,VWS V14.01,2013-09-17 22:44:00,
2013-09-17 15:49:00,67.5,51.3,27.74,SSW,197,0.0,8.0,56,0.00,,,0.00,VWS V14.01,2013-09-17 22:49:00,
2013-09-17 15:55:00,67.3,52.0,27.74,SE,145,1.0,8.0,58,0.00,,,0.00,VWS V14.01,2013-09-17 22:55:00,
2013-09-17 16:00:00,66.9,51.7,27.74,NE,38,1.0,2.0,58,0.00,,,0.00,VWS V14.01,2013-09-17 23:00:00,
2013-09-17 16:05:00,66.6,51.8,27.74,NNW,327,0.0,5.0,59,0.00,,,0.00,VWS V14.01,2013-09-17 23:05:00,
2013-09-17 16:19:00,66.2,52.4,27.74,NNW,330,0.0,0.0,61,0.00,,,0.00,VWS V14.01,2013-09-17 23:19:00,
2013-09-17 16:24:00,66.2,52.4,27.73,WSW,253,0.0,2.0,61,0.00,,,0.00,VWS V14.01,2013-09-17 23:24:00,
2013-09-17 16:29:00,66.0,52.2,27.74,West,279,1.0,1.0,61,0.00,,,0.00,VWS V14.01,2013-09-17 23:29:00,
2013-09-17 16:35:00,65.8,52.0,27.74,SSW,204,0.0,3.0,61,0.00,,,0.00,VWS V14.01,2013-09-17 23:35:00,
2013-09-17 16:40:00,65.6,51.8,27.74,East,100,0.0,5.0,61,0.00,,,0.00,VWS V14.01,2013-09-17 23:40:00,
2013-09-17 16:45:00,65.4,52.5,27.74,SSE,149,6.0,7.0,63,0.00,,,0.00,VWS V14.01,2013-09-17 23:45:00,
2013-09-17 16:50:00,64.8,52.3,27.74,South,176,4.0,8.0,64,0.00,,,0.00,VWS V14.01,2013-09-17 23:50:00,
2013-09-17 16:55:00,64.2,52.6,27.74,SSW,200,1.0,8.0,66,0.00,,,0.00,VWS V14.01,2013-09-17 23:55:00,
2013-09-17 17:00:00,63.9,52.7,27.74,South,178,0.0,0.0,67,0.00,,,0.00,VWS V14.01,2013-09-18 00:00:00,
2013-09-17 17:05:00,63.4,52.7,27.74,SSE,165,0.0,4.0,68,0.00,,,0.00,VWS V14.01,2013-09-18 00:05:00,
2013-09-17 17:10:00,63.1,52.4,27.75,South,186,0.0,4.0,68,0.00,,,0.00,VWS V14.01,2013-09-18 00:10:00,
2013-09-17 17:15:00,62.7,52.8,27.75,SSE,167,0.0,4.0,70,0.00,,,0.00,VWS V14.01,2013-09-18 00:15:00,
2013-09-17 17:20:00,62.4,52.9,27.75,SE,136,1.0,4.0,71,0.75,,,0.75,VWS V14.01,2013-09-18 00:20:00,
2013-09-17 17:26:00,62.3,53.2,27.75,SSE,158,2.0,4.0,72,0.75,,,0.75,VWS V14.01,2013-09-18 00:26:00,
2013-09-17 17:31:00,61.9,52.8,27.75,SSE,153,0.0,3.0,72,0.75,,,0.75,VWS V14.01,2013-09-18 00:31:00,
2013-09-17 17:36:00,61.8,52.7,27.75,South,184,2.0,9.0,72,0.75,,,0.75,VWS V14.01,2013-09-18 00:36:00,
2013-09-17 17:41:00,61.5,52.4,27.76,South,183,3.0,9.0,72,0.75,,,0.75,VWS V14.01,2013-09-18 00:41:00,
2013-09-17 17:46:00,61.2,52.5,27.75,SSE,149,0.0,9.0,73,0.75,,,0.75,VWS V14.01,2013-09-18 00:46:00,
2013-09-17 17:51:00,60.9,52.6,27.75,South,174,0.0,9.0,74,0.75,,,0.75,VWS V14.01,2013-09-18 00:51:00,
2013-09-17 17:56:00,60.6,52.3,27.75,South,170,0.0,9.0,74,0.75,,,0.75,VWS V14.01,2013-09-18 00:56:00,
2013-09-17 18:01:00,60.4,52.5,27.75,SSW,212,1.0,6.0,75,0.75,,,0.75,VWS V14.01,2013-09-18 01:01:00,
2013-09-17 18:06:00,60.2,52.6,27.75,NW,320,0.0,6.0,76,0.75,,,0.75,VWS V14.01,2013-09-18 01:06:00,
2013-09-17 18:11:00,60.1,52.5,27.75,West,259,0.0,6.0,76,0.75,,,0.75,VWS V14.01,2013-09-18 01:11:00,
2013-09-17 18:16:00,60.0,52.8,27.75,SW,228,3.0,6.0,77,0.75,,,0.75,VWS V14.01,2013-09-18 01:16:00,
2013-09-17 18:21:00,59.8,52.9,27.75,SSW,211,1.0,6.0,78,0.75,,,0.75,VWS V14.01,2013-09-18 01:21:00,
2013-09-17 18:26:00,59.7,52.8,27.75,NNE,16,1.0,6.0,78,0.75,,,0.75,VWS V14.01,2013-09-18 01:26:00,
2013-09-17 18:31:00,59.5,53.0,27.76,SSE,166,0.0,2.0,79,0.00,,,0.75,VWS V14.01,2013-09-18 01:31:00,
2013-09-17 18:37:00,59.4,53.6,27.76,South,176,2.0,3.0,81,0.00,,,0.75,VWS V14.01,2013-09-18 01:37:00,
2013-09-17 18:42:00,59.2,53.4,27.76,South,173,1.0,4.0,81,0.00,,,0.75,VWS V14.01,2013-09-18 01:42:00,
2013-09-17 18:47:00,59.1,53.6,27.75,South,188,3.0,4.0,82,0.00,,,0.75,VWS V14.01,2013-09-18 01:47:00,
2013-09-17 18:52:00,58.9,53.4,27.76,South,185,3.0,7.0,82,0.00,,,0.75,VWS V14.01,2013-09-18 01:52:00,
2013-09-17 18:57:00,58.9,53.8,27.76,South,178,0.0,7.0,83,0.00,,,0.75,VWS V14.01,2013-09-18 01:57:00,
2013-09-17 19:02:00,58.7,53.6,27.75,South,180,1.0,5.0,83,0.00,,,0.75,VWS V14.01,2013-09-18 02:02:00,
2013-09-17 19:07:00,58.7,53.6,27.76,South,178,0.0,5.0,83,0.00,,,0.75,VWS V14.01,2013-09-18 02:07:00,
2013-09-17 19:12:00,58.7,53.6,27.76,South,183,0.0,5.0,83,0.00,,,0.75,VWS V14.01,2013-09-18 02:12:00,
2013-09-17 19:17:00,58.8,54.0,27.76,South,186,0.0,5.0,84,0.00,,,0.75,VWS V14.01,2013-09-18 02:17:00,
2013-09-17 19:22:00,58.8,54.0,27.76,South,191,0.0,5.0,84,0.00,,,0.75,VWS V14.01,2013-09-18 02:22:00,
2013-09-17 19:27:00,58.8,54.0,27.77,South,182,0.0,5.0,84,0.00,,,0.75,VWS V14.01,2013-09-18 02:27:00,
2013-09-17 19:32:00,58.7,53.9,27.77,South,180,0.0,2.0,84,0.00,,,0.75,VWS V14.01,2013-09-18 02:32:00,
2013-09-17 19:37:00,58.8,54.0,27.77,South,174,0.0,4.0,84,0.00,,,0.75,VWS V14.01,2013-09-18 02:37:00,
2013-09-17 19:42:00,58.7,53.9,27.77,South,181,1.0,4.0,84,0.00,,,0.75,VWS V14.01,2013-09-18 02:42:00,
2013-09-17 19:48:00,58.7,53.9,27.78,South,182,0.0,4.0,84,0.00,,,0.75,VWS V14.01,2013-09-18 02:48:00,
2013-09-17 19:53:00,58.7,53.9,27.78,South,182,0.0,4.0,84,0.00,,,0.75,VWS V14.01,2013-09-18 02:53:00,
2013-09-17 19:58:00,58.6,53.8,27.78,South,178,4.0,5.0,84,0.00,,,0.75,VWS V14.01,2013-09-18 02:58:00,
2013-09-17 20:03:00,58.6,53.5,27.78,South,175,3.0,7.0,83,0.00,,,0.75,VWS V14.01,2013-09-18 03:03:00,
2013-09-17 20:08:00,58.4,53.3,27.78,SSE,167,0.0,7.0,83,0.00,,,0.75,VWS V14.01,2013-09-18 03:08:00,
2013-09-17 20:13:00,58.5,53.4,27.78,SSW,193,2.0,7.0,83,0.00,,,0.75,VWS V14.01,2013-09-18 03:13:00,
2013-09-17 20:19:00,58.3,53.2,27.78,South,171,1.0,7.0,83,0.00,,,0.75,VWS V14.01,2013-09-18 03:19:00,
2013-09-17 20:24:00,58.3,52.8,27.78,South,170,1.0,7.0,82,0.00,,,0.75,VWS V14.01,2013-09-18 03:24:00,
2013-09-17 20:29:00,58.3,53.2,27.79,SSE,155,5.0,7.0,83,0.00,,,0.75,VWS V14.01,2013-09-18 03:29:00,
2013-09-17 20:34:00,58.3,53.2,27.79,SSW,196,2.0,9.0,83,0.00,,,0.75,VWS V14.01,2013-09-18 03:34:00,
2013-09-17 20:39:00,58.2,53.1,27.79,South,182,4.0,9.0,83,0.00,,,0.75,VWS V14.01,2013-09-18 03:39:00,
2013-09-17 20:44:00,58.0,52.9,27.79,South,178,5.0,9.0,83,0.00,,,0.75,VWS V14.01,2013-09-18 03:44:00,
2013-09-17 20:49:00,58.0,52.9,27.79,South,173,5.0,9.0,83,0.00,,,0.75,VWS V14.01,2013-09-18 03:49:00,
2013-09-17 20:54:00,57.9,52.8,27.79,South,184,5.0,9.0,83,0.00,,,0.75,VWS V14.01,2013-09-18 03:54:00,
2013-09-17 20:59:00,57.7,52.6,27.79,SSW,207,3.0,3.0,83,0.00,,,0.75,VWS V14.01,2013-09-18 03:59:00,
2013-09-17 21:01:00,57.7,52.6,27.79,SSW,194,2.0,4.0,83,0.00,,,0.75,VWS V14.01,2013-09-18 04:01:00,
2013-09-17 21:02:00,57.7,52.6,27.79,South,188,0.0,4.0,83,0.00,,,0.75,VWS V14.01,2013-09-18 04:02:00,
2013-09-17 21:03:00,57.7,52.6,27.79,South,187,0.0,4.0,83,0.00,,,0.75,VWS V14.01,2013-09-18 04:03:00,
2013-09-17 21:05:00,57.7,52.6,27.79,South,174,0.0,5.0,83,0.00,,,0.75,VWS V14.01,2013-09-18 04:05:00,
2013-09-17 21:10:00,57.5,52.4,27.79,South,174,0.0,8.0,83,0.00,,,0.75,VWS V14.01,2013-09-18 04:10:00,
2013-09-17 21:15:00,57.5,52.1,27.79,SSW,213,2.0,8.0,82,0.00,,,0.75,VWS V14.01,2013-09-18 04:15:00,
2013-09-17 21:20:00,57.6,52.2,27.80,SSW,200,0.0,8.0,82,0.00,,,0.75,VWS V14.01,2013-09-18 04:20:00,
2013-09-17 21:25:00,57.5,52.1,27.80,South,184,0.0,8.0,82,0.00,,,0.75,VWS V14.01,2013-09-18 04:25:00,
2013-09-17 21:30:00,57.5,52.1,27.80,South,184,0.0,0.0,82,0.00,,,0.75,VWS V14.01,2013-09-18 04:30:00,
2013-09-17 21:35:00,57.5,52.1,27.81,SSE,152,0.0,4.0,82,0.00,,,0.75,VWS V14.01,2013-09-18 04:35:00,
2013-09-17 21:40:00,57.5,52.4,27.81,East,94,1.0,4.0,83,0.00,,,0.75,VWS V14.01,2013-09-18 04:40:00,
2013-09-17 21:46:00,57.4,52.6,27.81,East,93,0.0,4.0,84,0.00,,,0.75,VWS V14.01,2013-09-18 04:46:00,
2013-09-17 21:51:00,57.3,52.8,27.81,ENE,77,0.0,4.0,85,0.00,,,0.75,VWS V14.01,2013-09-18 04:51:00,
2013-09-17 21:56:00,57.0,52.2,27.81,NW,316,0.0,4.0,84,0.00,,,0.75,VWS V14.01,2013-09-18 04:56:00,
2013-09-17 22:01:00,57.0,52.5,27.81,SSW,201,0.0,0.0,85,0.00,,,0.75,VWS V14.01,2013-09-18 05:01:00,
2013-09-17 22:06:00,56.8,52.3,27.81,SSE,148,1.0,3.0,85,0.00,,,0.75,VWS V14.01,2013-09-18 05:06:00,
2013-09-17 22:11:00,56.8,52.3,27.81,SW,233,0.0,3.0,85,0.00,,,0.75,VWS V14.01,2013-09-18 05:11:00,
2013-09-17 22:16:00,56.7,52.2,27.81,SSW,210,5.0,7.0,85,0.00,,,0.75,VWS V14.01,2013-09-18 05:16:00,
2013-09-17 22:21:00,56.6,51.8,27.81,NNW,338,4.0,8.0,84,0.00,,,0.75,VWS V14.01,2013-09-18 05:21:00,
2013-09-17 22:26:00,56.4,52.3,27.81,South,182,0.0,8.0,86,0.00,,,0.75,VWS V14.01,2013-09-18 05:26:00,
2013-09-17 22:31:00,56.2,51.8,27.81,North,355,0.0,0.0,85,0.00,,,0.75,VWS V14.01,2013-09-18 05:31:00,
2013-09-17 22:36:00,56.1,52.0,27.81,NNW,344,0.0,6.0,86,0.00,,,0.75,VWS V14.01,2013-09-18 05:36:00,
2013-09-17 22:41:00,55.7,51.6,27.81,NNW,341,0.0,6.0,86,0.00,,,0.75,VWS V14.01,2013-09-18 05:41:00,
2013-09-17 22:46:00,55.5,51.7,27.81,West,270,0.0,6.0,87,0.00,,,0.75,VWS V14.01,2013-09-18 05:46:00,
2013-09-17 22:51:00,55.3,51.8,27.81,West,266,0.0,6.0,88,0.00,,,0.75,VWS V14.01,2013-09-18 05:51:00,
2013-09-17 22:56:00,55.2,52.0,27.81,West,261,0.0,6.0,89,0.00,,,0.75,VWS V14.01,2013-09-18 05:56:00,
2013-09-17 23:01:00,55.0,51.8,27.82,WSW,258,0.0,0.0,89,0.00,,,0.75,VWS V14.01,2013-09-18 06:01:00,
2013-09-17 23:07:00,55.0,51.8,27.81,WSW,258,0.0,0.0,89,0.00,,,0.75,VWS V14.01,2013-09-18 06:07:00,
2013-09-17 23:12:00,54.9,51.7,27.81,West,259,0.0,0.0,89,0.00,,,0.75,VWS V14.01,2013-09-18 06:12:00,
2013-09-17 23:17:00,54.9,52.0,27.82,SW,234,0.0,3.0,90,0.00,,,0.75,VWS V14.01,2013-09-18 06:17:00,
2013-09-17 23:22:00,54.7,51.8,27.82,SW,228,1.0,3.0,90,0.00,,,0.75,VWS V14.01,2013-09-18 06:22:00,
2013-09-17 23:27:00,54.6,52.0,27.81,SW,223,0.0,3.0,91,0.00,,,0.75,VWS V14.01,2013-09-18 06:27:00,
2013-09-17 23:32:00,54.5,51.9,27.81,SW,224,0.0,0.0,91,0.00,,,0.75,VWS V14.01,2013-09-18 06:32:00,
2013-09-17 23:37:00,54.6,52.3,27.81,SW,223,0.0,0.0,92,0.00,,,0.75,VWS V14.01,2013-09-18 06:37:00,
2013-09-17 23:42:00,54.6,52.3,27.82,SW,223,0.0,0.0,92,0.00,,,0.75,VWS V14.01,2013-09-18 06:42:00,
2013-09-17 23:47:00,54.4,52.1,27.82,SW,223,0.0,0.0,92,0.00,,,0.75,VWS V14.01,2013-09-18 06:47:00,
2013-09-17 23:52:00,54.4,52.1,27.81,SW,223,0.0,0.0,92,0.00,,,0.75,VWS V14.01,2013-09-18 06:52:00,
2013-09-17 23:57:00,54.4,52.4,27.81,SW,223,0.0,0.0,93,0.00,,,0.75,VWS V14.01,2013-09-18 06:57:00,